Carmi, IL

8:57 PM CST on February 11, 2016 (GMT -0600)
Carmi Municipal

Weather History for KCUL - January, 2013

Change the Weather History Date:

Sunday, January 6, 2013

  Actual Average (KEVV) Record (KEVV)
Temperature  
Mean Temperature 28 °F 32 °F  
Max Temperature 38 °F 41 °F 65 °F (1946)
Min Temperature 19 °F 24 °F -9 °F (1942)
Degree Days  
Heating Degree Days 36 33  
Month to date heating degree days 193  
Since 1 July heating degree days 1965  
Cooling Degree Days 0 0  
Month to date cooling degree days 0  
Year to date cooling degree days 0  
Moisture  
Dew Point 29 °F    
Average Humidity 84    
Maximum Humidity 98    
Minimum Humidity 71    
Precipitation  
Precipitation 0.00 in 0.09 in 1.27 in (1913)
Month to date precipitation 0.60  
Year to date precipitation 0.60  
Snow  
Snow 0.00 in 0.10 in 7.70 in (1951)
Month to date snowfall 0.7  
Since 1 July snowfall 4.2  
Snow Depth -    
Sea Level Pressure  
Sea Level Pressure 30.24 in    
Wind  
Wind Speed 10 mph (West)    
Max Wind Speed 21 mph    
Max Gust Speed 24 mph    
Visibility 7 miles    
Events Fog    
T = Trace of Precipitation, MM = Missing Value Source: NWS Daily Summary

Daily Weather History Graph

Daily Weather History Graph

Search for Another Location

Airport or City:

Trip Planner

Search our weather history database for the weather conditions in past years. The results will help you decide how hot, cold, wet, or windy it might be!

Date:

Astronomy

Jan. 06, 2013 Rise Set
Actual Time 7:09 AM CST 4:48 PM CST
Civil Twilight 6:39 AM CST 5:17 PM CST
Nautical Twilight 6:07 AM CST 5:50 PM CST
Astronomical Twilight 5:35 AM CST 6:22 PM CST
Moon 1:25 AM CST (1/6) 12:13 PM CST (1/6)
Length of Visible Light 10h 37m
Length of Day
9h 38m
Waning Crescent, 33% of the Moon is Illuminated
Jan 6
Waning Crescent
Jan 11
New
Jan 18
First Quarter
Jan 26
Full
Feb 3
Last Quarter

Hourly Weather History & Observations

Time (CST) Temp. Windchill Dew Point Humidity Pressure Visibility Wind Dir Wind Speed Gust Speed Precip Events Conditions
12:15 AM 38.3 °F 30.9 °F 33.4 °F 83% 30.16 in 10.0 mi SW 11.5 mph - N/A   Overcast
12:35 AM 38.5 °F 30.7 °F 33.8 °F 83% 30.15 in 10.0 mi SW 12.7 mph 16.1 mph N/A   Overcast
12:55 AM 38.5 °F 31.1 °F 34.0 °F 84% 30.15 in 10.0 mi SSW 11.5 mph - N/A   Overcast
1:15 AM 38.8 °F 32.1 °F 34.2 °F 83% 30.15 in 10.0 mi SSW 10.4 mph - N/A   Overcast
1:35 AM 38.7 °F 31.4 °F 34.2 °F 84% 30.14 in 7.0 mi SSW 11.5 mph - N/A   Overcast
1:55 AM 38.8 °F 31.2 °F 34.3 °F 84% 30.14 in 10.0 mi SSW 12.7 mph - N/A   Overcast
2:15 AM 38.7 °F 31.4 °F 34.7 °F 86% 30.14 in 10.0 mi SW 11.5 mph - N/A   Overcast
2:35 AM 38.7 °F 30.9 °F 34.7 °F 86% 30.14 in 10.0 mi SW 12.7 mph - N/A   Overcast
2:55 AM 38.8 °F 31.2 °F 34.7 °F 85% 30.13 in 10.0 mi SW 12.7 mph - N/A   Overcast
3:15 AM 38.7 °F 31.4 °F 34.7 °F 86% 30.13 in 10.0 mi SW 11.5 mph - N/A   Overcast
3:35 AM 38.3 °F 31.4 °F 34.7 °F 87% 30.12 in 10.0 mi SW 10.4 mph - N/A   Scattered Clouds
3:55 AM 37.6 °F 31.0 °F 34.5 °F 89% 30.11 in 10.0 mi SSW 9.2 mph - N/A   Scattered Clouds
4:15 AM 38.1 °F 31.2 °F 34.7 °F 87% 30.10 in 10.0 mi SSW 10.4 mph - N/A   Mostly Cloudy
4:35 AM 38.3 °F 31.9 °F 34.7 °F 87% 30.10 in 10.0 mi SSW 9.2 mph - N/A   Overcast
4:55 AM 37.9 °F 32.1 °F 34.2 °F 86% 30.10 in 10.0 mi SSW 8.1 mph - N/A   Scattered Clouds
5:15 AM 37.4 °F 31.4 °F 34.0 °F 87% 30.10 in 10.0 mi SSW 8.1 mph - N/A   Clear
5:35 AM 37.0 °F 30.4 °F 33.8 °F 88% 30.10 in 10.0 mi SSW 9.2 mph - N/A   Clear
6:15 AM 35.4 °F 30.5 °F 33.3 °F 92% 30.11 in 10.0 mi SSW 5.8 mph - N/A   Clear
6:35 AM 35.4 °F 29.7 °F 32.9 °F 91% 30.13 in 7.0 mi SW 6.9 mph - N/A   Clear
6:55 AM 35.1 °F 28.6 °F 32.7 °F 91% 30.13 in 7.0 mi SW 8.1 mph - N/A   Clear
7:15 AM 34.9 °F 27.7 °F 32.7 °F 92% 30.14 in 7.0 mi SW 9.2 mph - N/A   Scattered Clouds
7:55 AM 34.9 °F 28.3 °F 32.4 °F 91% 30.16 in 7.0 mi SW 8.1 mph - N/A   Scattered Clouds
8:15 AM 34.3 °F 28.4 °F 32.0 °F 91% 30.16 in 7.0 mi WSW 6.9 mph - N/A   Scattered Clouds
8:35 AM 36.3 °F 28.9 °F 32.2 °F 85% 30.16 in 7.0 mi WSW 10.4 mph - N/A   Clear
8:55 AM 37.4 °F 30.3 °F 32.4 °F 82% 30.16 in 7.0 mi West 10.4 mph - N/A   Scattered Clouds
9:15 AM 37.6 °F 30.0 °F 32.4 °F 81% 30.18 in 10.0 mi West 11.5 mph - N/A   Mostly Cloudy
9:35 AM 37.9 °F 30.5 °F 32.0 °F 79% 30.18 in 10.0 mi West 11.5 mph 19.6 mph N/A   Overcast
9:55 AM 37.6 °F 30.0 °F 31.3 °F 78% 30.19 in 10.0 mi West 11.5 mph 18.4 mph N/A   Overcast
10:15 AM 37.2 °F 28.3 °F 30.9 °F 78% 30.20 in 7.0 mi West 15.0 mph - N/A   Overcast
10:35 AM 36.9 °F 27.1 °F 30.0 °F 76% 30.20 in 10.0 mi WNW 17.3 mph 21.9 mph N/A   Overcast
10:55 AM 36.5 °F 27.4 °F 29.5 °F 76% 30.20 in 7.0 mi West 15.0 mph 23.0 mph N/A   Overcast
11:15 AM 36.1 °F 25.9 °F 29.5 °F 77% 30.20 in 7.0 mi WNW 18.4 mph 23.0 mph N/A   Overcast
11:35 AM 35.8 °F 25.7 °F 29.3 °F 77% 30.20 in 7.0 mi WNW 17.3 mph 21.9 mph N/A   Overcast
11:55 AM 35.6 °F 27.1 °F 28.8 °F 76% 30.20 in 10.0 mi West 12.7 mph - N/A   Overcast
12:15 PM 35.6 °F 25.5 °F 28.9 °F 77% 30.21 in 10.0 mi WNW 17.3 mph - N/A   Overcast
12:35 PM 35.6 °F 24.5 °F 28.0 °F 74% 30.21 in 7.0 mi WNW 20.7 mph 24.2 mph N/A   Overcast
12:55 PM 35.6 °F 26.2 °F 28.8 °F 76% 30.22 in 10.0 mi WNW 15.0 mph 20.7 mph N/A   Overcast
1:15 PM 35.2 °F 24.7 °F 28.2 °F 76% 30.23 in 10.0 mi WNW 18.4 mph - N/A   Overcast
1:35 PM 35.1 °F 26.4 °F 28.2 °F 76% 30.23 in 7.0 mi West 12.7 mph - N/A   Overcast
1:55 PM 34.9 °F 25.7 °F 28.0 °F 76% 30.25 in 7.0 mi WNW 13.8 mph - N/A   Overcast
2:15 PM 34.9 °F 26.2 °F 26.8 °F 72% 30.26 in 10.0 mi WNW 12.7 mph - N/A   Overcast
2:55 PM 34.9 °F 27.7 °F 27.5 °F 74% 30.28 in 10.0 mi NW 9.2 mph - N/A   Overcast
3:15 PM 34.7 °F 28.1 °F 27.3 °F 74% 30.29 in 5.0 mi WNW 8.1 mph - N/A   Haze
3:35 PM 34.3 °F 27.0 °F 27.0 °F 74% 30.30 in 7.0 mi WNW 9.2 mph - N/A   Scattered Clouds
3:55 PM 34.2 °F 26.2 °F 25.7 °F 71% 30.31 in 7.0 mi NW 10.4 mph 18.4 mph N/A   Clear
4:15 PM 33.1 °F 26.1 °F 25.3 °F 73% 30.32 in 5.0 mi NW 8.1 mph - N/A   Haze
4:35 PM 32.0 °F 25.6 °F 25.0 °F 75% 30.33 in 7.0 mi NW 6.9 mph - N/A   Scattered Clouds
4:55 PM 32.0 °F 28.7 °F 26.1 °F 79% 30.35 in 5.0 mi NW 3.5 mph - N/A   Haze
5:15 PM 32.0 °F 27.5 °F 25.9 °F 78% 30.35 in 5.0 mi WNW 4.6 mph - N/A   Haze
5:35 PM 31.1 °F 27.7 °F 25.5 °F 80% 30.35 in 7.0 mi NNE 3.5 mph - N/A   Scattered Clouds
5:55 PM 29.7 °F 24.7 °F 24.4 °F 81% 30.36 in 10.0 mi NNW 4.6 mph - N/A   Clear
6:15 PM 29.1 °F 25.4 °F 23.9 °F 81% 30.37 in 10.0 mi NNW 3.5 mph - N/A   Clear
6:35 PM 27.3 °F - 23.7 °F 86% 30.37 in 7.0 mi Calm Calm - N/A   Clear
6:55 PM 28.0 °F - 23.7 °F 84% 30.37 in 7.0 mi Calm Calm - N/A   Clear
7:15 PM 26.6 °F - 23.7 °F 89% 30.38 in 7.0 mi Calm Calm - N/A   Clear
7:35 PM 26.2 °F - 23.5 °F 90% 30.38 in 7.0 mi Calm Calm - N/A   Clear
7:55 PM 24.6 °F - 22.1 °F 90% 30.39 in 5.0 mi Calm Calm - N/A   Clear
8:15 PM 25.3 °F - 23.9 °F 94% 30.40 in 5.0 mi Calm Calm - N/A   Clear
8:35 PM 23.2 °F - 21.6 °F 94% 30.40 in 4.0 mi Calm Calm - N/A   Clear
8:55 PM 23.9 °F - 22.8 °F 96% 30.40 in 4.0 mi Calm Calm - N/A   Clear
9:35 PM 20.3 °F - 19.2 °F 96% 30.40 in 2.5 mi Calm Calm - N/A   Clear
9:55 PM 21.7 °F - 21.2 °F 98% 30.40 in 2.0 mi Calm Calm - N/A   Clear
10:15 PM 20.1 °F - 19.0 °F 96% 30.41 in 1.2 mi Calm Calm - N/A   Mist
10:35 PM 20.8 °F - 19.8 °F 96% 30.41 in 0.8 mi Calm Calm - N/A   Mist
10:55 PM 21.0 °F - 20.3 °F 97% 30.41 in 0.8 mi Calm Calm - N/A   Mist
11:35 PM 19.6 °F - 18.5 °F 96% 30.41 in 0.2 mi Calm Calm - N/A Fog Light Freezing Fog
11:55 PM 19.2 °F - 18.1 °F 96% 30.41 in 0.2 mi Calm Calm - N/A Fog Light Freezing Fog